Regional Weather Roundup
Issued by NWS Cleveland, OH

Home | Current Version | Previous Version | Graphics & Text | Print | Product List | Glossary On
Versions: 1 2 3 4 5 6 7 8 9 10 11 12 13 14 15 16 17 18 19 20 21 22 23 24 25 26 27 28 29 30 31 32 33 34 35 36 37 38 39 40 41 42 43 44 45 46 47 48 49 50
000
ASUS41 KCLE 230510
RWRCLE
OHIO REGIONAL WEATHER ROUNDUP
NATIONAL WEATHER SERVICE WILMINGTON, OH
100 AM EDT SAT MAY 23 2015

NOTE: "FAIR" INDICATES FEW OR NO CLOUDS BELOW 12,000 FEET WITH NO
SIGNIFICANT WEATHER AND/OR OBSTRUCTIONS TO VISIBILITY.

OHZ001>008-015>018-024>027-034-035-043-044-230600-
   NORTHWEST OHIO

CITY           SKY/WX    TMP DP  RH WIND       PRES   REMARKS
DEFIANCE       MOCLDY    49  40  71 E7        30.32R
FINDLAY        PTCLDY    52  36  54 S3        30.30R
TOLEDO EXPRESS PTCLDY    49  39  68 W5        30.31R
TOLEDO EXEC    MOCLDY    51  37  58 NE3       30.32R
LIMA           PTCLDY    53  36  52 SE8       30.30S
$$

OHZ009>014-019>023-028>033-038-089-230600-
   NORTHEAST OHIO

CITY           SKY/WX    TMP DP  RH WIND       PRES   REMARKS
CLE-HOPKINS    PTCLDY    49  30  48 CALM      30.33F
CLE-LAKEFRONT  PTCLDY    51  29  42 SE6       30.32S
CUY CO. ARPT   NOT AVBL
LORAIN-ELYRIA  PTCLDY    46  35  65 CALM      30.32R
ASHTABULA      PTCLDY    38  35  89 CALM      30.36R
AKRON-CANTON   MOCLDY    47  29  49 E6        30.32R
WOOSTER        PTCLDY    45  34  65 SE3       30.33R
MANSFIELD      PTCLDY    48  34  58 SE6       30.32R
YOUNGSTOWN     PTCLDY    37  31  78 E5        30.33S
$$

OHZ042-051>053-060>062-070>072-077>081-230600-
  SOUTHWEST OHIO

CITY           SKY/WX    TMP DP  RH WIND       PRES   REMARKS
CINC-COVINGTON CLEAR     52  46  80 CALM      30.29S
CINC-LUNKEN    CLEAR     52  49  89 CALM      30.30R
HAMILTON       CLEAR     50  47  89 CALM      30.30S
DAYTON         PTCLDY    58  38  47 CALM      30.31R
WRIGHT-PAT AFB CLEAR     51  44  78 N2        30.30R
DAYTON GENERAL FAIR      55  45  68 NE5       30.29R
WILMINGTON     CLEAR     52  44  74 E3        30.30R
$$

OHZ036-037-039>041-045>050-054>059-063>069-073>076-082>088-230600-
  CENTRAL AND SOUTHEAST OHIO

CITY           SKY/WX    TMP DP  RH WIND       PRES   REMARKS
COLUMBUS       PTCLDY    55  34  45 CALM      30.31R
OSU AIRPORT    PTCLDY    55  33  43 E3        30.31R
BOLTON FIELD   NOT AVBL
RICKENBACK AFB CLEAR     52  38  58 E3        30.31R
NEWARK         CLEAR     46  40  79 CALM      30.32R
MARION         PTCLDY    50  34  54 SE3       30.32R
LANCASTER      CLEAR     53  37  54 SE5       30.32R
ZANESVILLE     CLEAR     49  36  61 CALM      30.32R
NEW PHILLY     PTCLDY    47  38  71 CALM      30.34R
$$


USA.gov is the U.S. government's official web portal to all federal, state and local government web resources and services.